Fryeburg, ME

12:41 AM EST on February 28, 2017 (GMT -0500)
Eastern Slopes Regional

Weather History for KIZG - February, 2012

Change the Weather History Date:

Tuesday, February 14, 2012

  Actual Average Record
Temperature  
Mean Temperature 24 °F -  
Max Temperature 39 °F 31 °F 43 °F (2011)
Min Temperature 8 °F 5 °F -18 °F (2016)
Degree Days  
Heating Degree Days 42    
Moisture  
Dew Point 15 °F    
Average Humidity 66    
Maximum Humidity 88    
Minimum Humidity 41    
Precipitation  
Precipitation 0.00 in - - ()
Sea Level Pressure  
Sea Level Pressure 30.04 in    
Wind  
Wind Speed 2 mph (SW)    
Max Wind Speed 8 mph    
Max Gust Speed -    
Visibility 10 miles    
Events      
Averages and records for this station are not official NWS values.
T = Trace of Precipitation, MM = Missing Value Source: NWS Daily Summary

Daily Weather History Graph

Daily Weather History Graph

Search for Another Location

Airport or City:

Trip Planner

Search our weather history database for the weather conditions in past years. The results will help you decide how hot, cold, wet, or windy it might be!

Date:

Astronomy

Feb. 14, 2012 Rise Set
Actual Time 6:45 AM EST 5:11 PM EST
Civil Twilight 6:15 AM EST 5:41 PM EST
Nautical Twilight 5:41 AM EST 6:15 PM EST
Astronomical Twilight 5:08 AM EST 6:48 PM EST
Moon 12:31 AM EST (2/14) 10:09 AM EST (2/14)
Length of Visible Light 11h 25m
Length of Day
10h 26m
Waning Gibbous, 50% of the Moon is Illuminated
Feb 14
Waning Gibbous
Feb 14
Last Quarter
Feb 21
New
Feb 29
First Quarter
Mar 8
Full

Hourly Weather History & Observations

Time (EST) Temp. Windchill Dew Point Humidity Pressure Visibility Wind Dir Wind Speed Gust Speed Precip Events Conditions
12:54 AM 15.1 °F - 9.0 °F 77% 29.95 in 10.0 mi Calm Calm - N/A   Overcast
1:54 AM 16.0 °F - 9.0 °F 74% 29.96 in 10.0 mi Calm Calm - N/A   Overcast
2:54 AM 12.9 °F - 8.1 °F 81% 29.97 in 10.0 mi Calm Calm - N/A   Mostly Cloudy
3:54 AM 14.0 °F - 8.1 °F 77% 29.99 in 10.0 mi Calm Calm - N/A   Clear
4:54 AM 10.9 °F - 7.0 °F 84% 30.01 in 10.0 mi Calm Calm - N/A   Clear
5:54 AM 10.9 °F - 8.1 °F 88% 30.03 in 10.0 mi Calm Calm - N/A   Clear
6:54 AM 8.1 °F - 5.0 °F 87% 30.05 in 10.0 mi Calm Calm - N/A   Clear
7:54 AM 15.1 °F 6.4 °F 10.0 °F 80% 30.07 in 10.0 mi NW 5.8 mph - N/A   Clear
8:54 AM 21.0 °F - 15.1 °F 78% 30.08 in 10.0 mi Calm Calm - N/A   Overcast
9:54 AM 25.0 °F - 15.1 °F 66% 30.08 in 10.0 mi Calm Calm - N/A   Overcast
10:54 AM 32.0 °F 26.4 °F 17.1 °F 54% 30.07 in 10.0 mi SW 5.8 mph - N/A   Mostly Cloudy
11:54 AM 35.1 °F 32.2 °F 17.1 °F 48% 30.05 in 10.0 mi SW 3.5 mph - N/A   Clear
12:54 PM 35.1 °F 31.0 °F 16.0 °F 46% 30.03 in 10.0 mi SSW 4.6 mph - N/A   Partly Cloudy
1:54 PM 37.0 °F 31.0 °F 16.0 °F 42% 30.01 in 10.0 mi SW 8.1 mph - N/A   Mostly Cloudy
2:54 PM 37.9 °F 33.5 °F 17.1 °F 43% 30.01 in 10.0 mi WSW 5.8 mph - N/A   Overcast
3:54 PM 39.0 °F 33.4 °F 17.1 °F 41% 30.02 in 10.0 mi South 8.1 mph - N/A   Clear
4:54 PM 36.0 °F 29.6 °F 16.0 °F 44% 30.05 in 10.0 mi SSW 8.1 mph - N/A   Mostly Cloudy
5:54 PM 34.0 °F 31.0 °F 18.0 °F 52% 30.06 in 10.0 mi South 3.5 mph - N/A   Partly Cloudy
6:54 PM 30.0 °F 26.5 °F 18.0 °F 61% 30.08 in 10.0 mi ENE 3.5 mph - N/A   Clear
7:54 PM 30.9 °F - 19.9 °F 64% 30.08 in 10.0 mi Calm Calm - N/A   Clear
8:54 PM 28.0 °F - 19.9 °F 72% 30.09 in 10.0 mi Calm Calm - N/A   Overcast
9:54 PM 27.0 °F - 19.9 °F 75% 30.09 in 10.0 mi Calm Calm - N/A   Partly Cloudy
10:54 PM 27.0 °F - 19.9 °F 75% 30.09 in 10.0 mi Calm Calm - N/A   Mostly Cloudy
11:54 PM 28.0 °F - 21.9 °F 78% 30.10 in 10.0 mi Calm Calm - N/A   Overcast